Regional Weather Roundup
Issued by NWS Midland/Odessa, TX

Skip options and go directly to product.
Home | Oldest Version | Previous Version | Current Version | All | Text Only | Save Text | Print | Product List | Glossary Off

Skip product version selection by date and time.   

535
ASUS44 KMAF 311610
RWRMAF
MIDLAND AREA WEATHER ROUNDUP
NATIONAL WEATHER SERVICE MIDLAND TX
1100 AM CDT FRI OCT 31 2014

...IN SOUTHWEST TEXAS AND SOUTHEAST NEW MEXICO...

CITY           SKY/WX    TMP DP  RH WIND       PRES   REMARKS
ALPINE         PTSUNNY   62  47  59 NE10      30.47S
ANDREWS        FAIR      59  33  38 E17       30.43S
ARTESIA        NOT AVBL
BIG SPRING     SUNNY     60  33  37 NE14G22   30.44S
CARLSBAD       PTSUNNY   59  38  45 N5        30.43R
DRYDEN           N/A     70  41  34 NE12      30.36R
FORT STOCKTON  MOSUNNY   65  36  34 E14       30.40R
GUAD PASS      SUNNY     55  32  41 NE33G41   30.42S
HOBBS          SUNNY     57  32  38 E14       30.45R
MARFA          CLOUDY    57  48  72 NE17      30.43S
MIDLAND AIRPK  SUNNY     61  34  35 E13       30.43S
MIDLAND INTL   SUNNY     61  35  37 E17       30.41S
ODESSA         SUNNY     61  33  35 E18       30.42R
PECOS          MOSUNNY   62  38  42 E9        30.41R
PRESIDIO       CLOUDY    68  56  63 NE15G21   30.32S
SEMINOLE       SUNNY     58  32  37 E13       30.45S
SNYDER         SUNNY     56  36  47 NE14G20   30.44R
WINK           CLOUDY    64  35  34 E9        30.40R
$$
...OTHER STATIONS IN TEXAS...

CITY           SKY/WX    TMP DP  RH WIND       PRES   REMARKS
ABILENE        SUNNY     61  36  39 NE12      30.40S
AMARILLO       SUNNY     50  30  46 NE12      30.48S
AUSTIN         MOSUNNY   69  48  47 N14       30.28R
BROWNSVILLE    MOSUNNY   82  70  66 W5        30.14F
CORPUS CHRISTI LGT RAIN  68  65  90 N13       30.21R
DALLAS FTW     SUNNY     61  42  49 N18       30.33R
DEL RIO        CLOUDY    73  47  39 E9        30.30R
EL PASO        MOSUNNY   64  36  35 E14       30.34S
HOUSTON INT    MOSUNNY   73  48  41 N14G22    30.20R
LUBBOCK        MOSUNNY   56  34  43 E15       30.44S
SAN ANGELO     SUNNY     66  34  30 NE14      30.39R
SAN ANTONIO    MOSUNNY   68  51  54 N10       30.29R
WACO           SUNNY     64  43  46 N16G25    30.32R
WICHITA FALLS  NOT AVBL
$$
...OTHER LOCATIONS IN NEW MEXICO...

CITY           SKY/WX    TMP DP  RH WIND       PRES   REMARKS
ALAMAGORDO     NOT AVBL
ALBUQUERQUE    MOSUNNY   57  28  33 E20       30.38R
CANNON AFB     SUNNY     39  28  65 NE6       30.41R WCI  35
CLOVIS         SUNNY     52  30  43 SE12      30.49F
HOLLOMAN AFB   MOSUNNY   61  37  40 W1        30.34S
ROSWELL        SUNNY     58  34  40 SE6       30.44S
RUIDOSO        SUNNY     48  28  46 SE12      30.50S
SANTA FE       MOSUNNY   53  26  35 SE18G26   30.43S
TRUTH OR CONSE SUNNY     59  32  36 NE7       30.35R
TUCUMCARI      SUNNY     50  29  44 E6        30.47S
$$

USA.gov is the U.S. government's official web portal to all federal, state and local government web resources and services.